QPF
0.00 0.00 0.00 0.00 0.00 0.00 0.00 0.00 0.00 0.00 0.00 0.00 0.00 0.00 0.00 0.00 0.00 0.00 0.00 0.00 0.00 0.00 0.00 0.00 0.00 0.00 0.00 0.00 0.00 0.00 0.00 0.00 0.00 0.00 0.00 0.01 0.03 0.03 0.03 0.01 0.00 0.00 0.00 0.00 0.00
0.00 0.00 0.00 0.00 0.00 0.00 0.00 0.00 0.00 0.00 0.00 0.00 0.00 0.00 0.00 0.00 0.00 0.00 0.00 0.00 0.00 0.00 0.00 0.00 0.00 0.00 0.00 0.00 0.00 0.00 0.00 0.00 0.00 0.00 0.00 0.02 0.05 0.04 0.00 0.00 0.00 0.00 0.00 0.01 0.02
0.00 0.00 0.00 0.00 0.00 0.00 0.00 0.00 0.00 0.00 0.00 0.00 0.00 0.00 0.00 0.00 0.00 0.00 0.00 0.00 0.00 0.00 0.00 0.00 0.00 0.00 0.00 0.00 0.00 0.00 0.00 0.00 0.00 0.00 0.00 0.00 0.00 0.04 0.01 0.00 0.01 0.01 0.00 0.01 0.01
0.00 0.00 0.00 0.00 0.00 0.00 0.00 0.00 0.00 0.00 0.00 0.00 0.00 0.00 0.00 0.00 0.00 0.00 0.00 0.00 0.00 0.00 0.00 0.00 0.00 0.00 0.00 0.00 0.00 0.00 0.00 0.00 0.00 0.00 0.00 0.00 0.00 0.00 0.00 0.00 0.00 0.00 0.00 0.00 0.00
0.00 0.00 0.00 0.00 0.00 0.00 0.00 0.00 0.00 0.00 0.00 0.00 0.00 0.00 0.00 0.00 0.00 0.00 0.00 0.00 0.00 0.00 0.00 0.00 0.00 0.00 0.00 0.00 0.00 0.00 0.00 0.00 0.00 0.00 0.00 0.00 0.00 0.00 0.00 0.00 0.00 0.00 0.00 0.00 0.02
0.00 0.00 0.00 0.00 0.00 0.00 0.00 0.00 0.00 0.00 0.00 0.00 0.00 0.00 0.00 0.00 0.00 0.00 0.00 0.00 0.00 0.00 0.00 0.00 0.00 0.00 0.00 0.00 0.00 0.00 0.00 0.00 0.00 0.00 0.00 0.00 0.00 0.00 0.00 0.00 0.00 0.02 0.01 0.00 0.03
0.00 0.00 0.00 0.00 0.00 0.00 0.00 0.00 0.00 0.00 0.00 0.00 0.00 0.00 0.00 0.00 0.00 0.00 0.00 0.00 0.00 0.00 0.00 0.00 0.00 0.00 0.00 0.00 0.00 0.00 0.01 0.01 0.00 0.00 0.00 0.00 0.01 0.00 0.00 0.00 0.01 0.01 0.00 0.01 0.04
0.00 0.00 0.00 0.00 0.00 0.00 0.00 0.00 0.00 0.00 0.00 0.00 0.00 0.00 0.00 0.00 0.00 0.00 0.00 0.00 0.00 0.00 0.00 0.00 0.00 0.00 0.00 0.00 0.00 0.00 0.02 0.04 0.01 0.04 0.01 0.00 0.05 0.00 0.00 0.00 0.00 0.00 0.01 0.03 0.03
0.00 0.00 0.00 0.00 0.00 0.00 0.00 0.00 0.00 0.00 0.00 0.00 0.00 0.00 0.00 0.00 0.00 0.00 0.00 0.00 0.00 0.00 0.00 0.00 0.00 0.00 0.00 0.00 0.00 0.00 0.00 0.01 0.03 0.01 0.01 0.02 0.02 0.00 0.00 0.00 0.00 0.00 0.01 0.01 0.01
0.00 0.00 0.00 0.00 0.00 0.00 0.00 0.00 0.00 0.00 0.00 0.00 0.00 0.00 0.00 0.00 0.00 0.00 0.00 0.00 0.00 0.00 0.00 0.00 0.00 0.00 0.00 0.00 0.00 0.00 0.00 0.00 0.01 0.01 0.00 0.00 0.00 0.00 0.00 0.00 0.00 0.00 0.00 0.00 0.00
0.00 0.00 0.00 0.00 0.00 0.00 0.00 0.00 0.00 0.00 0.00 0.00 0.00 0.00 0.00 0.00 0.00 0.00 0.00 0.00 0.00 0.00 0.00 0.00 0.00 0.00 0.00 0.00 0.00 0.00 0.00 0.00 0.00 0.00 0.00 0.00 0.00 0.00 0.00 0.00 0.00 0.00 0.00 0.00 0.00
0.00 0.00 0.00 0.00 0.00 0.00 0.00 0.00 0.00 0.00 0.00 0.00 0.00 0.00 0.00 0.00 0.00 0.00 0.00 0.00 0.00 0.00 0.00 0.00 0.00 0.00 0.00 0.00 0.00 0.00 0.00 0.00 0.01 0.01 0.00 0.00 0.00 0.00 0.01 0.01 0.00 0.00 0.00 0.00 0.00
0.00 0.00 0.00 0.00 0.00 0.00 0.00 0.00 0.00 0.00 0.00 0.00 0.00 0.00 0.00 0.00 0.00 0.00 0.00 0.00 0.00 0.00 0.00 0.00 0.00 0.00 0.00 0.00 0.00 0.00 0.00 0.00 0.00 0.00 0.00 0.00 0.01 0.02 0.02 0.01 0.00 0.00 0.00 0.00 0.02
0.00 0.00 0.00 0.00 0.00 0.00 0.00 0.00 0.00 0.00 0.00 0.00 0.00 0.00 0.00 0.00 0.00 0.00 0.00 0.00 0.00 0.00 0.00 0.00 0.00 0.00 0.00 0.00 0.00 0.00 0.00 0.00 0.00 0.00 0.00 0.01 0.02 0.09 0.04 0.03 0.01 0.01 0.01 0.01 0.02
0.00 0.00 0.00 0.00 0.00 0.00 0.00 0.00 0.00 0.00 0.00 0.00 0.00 0.00 0.00 0.00 0.00 0.00 0.00 0.00 0.00 0.00 0.00 0.00 0.00 0.00 0.00 0.00 0.00 0.00 0.00 0.00 0.00 0.00 0.00 0.00 0.04 0.11 0.07 0.07 0.08 0.06 0.03 0.03 0.00
0.00 0.00 0.00 0.00 0.00 0.00 0.00 0.00 0.00 0.00 0.00 0.00 0.00 0.00 0.00 0.00 0.00 0.00 0.00 0.00 0.00 0.00 0.00 0.00 0.00 0.00 0.00 0.00 0.00 0.00 0.00 0.00 0.00 0.00 0.00 0.00 0.01 0.10 0.08 0.07 0.06 0.02 0.01 0.00 0.00
0.00 0.00 0.00 0.00 0.00 0.00 0.00 0.00 0.00 0.00 0.00 0.00 0.00 0.00 0.00 0.00 0.00 0.00 0.00 0.00 0.00 0.00 0.00 0.00 0.00 0.00 0.00 0.00 0.00 0.00 0.00 0.00 0.00 0.00 0.00 0.00 0.04 0.03 0.01 0.00 0.01 0.00 0.00 0.00 0.00
0.00 0.00 0.00 0.00 0.00 0.00 0.00 0.00 0.01 0.00 0.00 0.00 0.00 0.00 0.00 0.00 0.00 0.00 0.00 0.00 0.00 0.00 0.00 0.00 0.00 0.00 0.00 0.00 0.00 0.00 0.00 0.00 0.00 0.00 0.00 0.00 0.09 0.04 0.00 0.00 0.00 0.00 0.00 0.00 0.00
0.00 0.00 0.00 0.00 0.00 0.00 0.00 0.00 0.00 0.00 0.00 0.00 0.00 0.00 0.00 0.00 0.00 0.00 0.00 0.00 0.00 0.00 0.00 0.00 0.00 0.00 0.00 0.00 0.00 0.00 0.00 0.00 0.00 0.00 0.01 0.05 0.04 0.02 0.00 0.00 0.00 0.00 0.00 0.00 0.00
0.00 0.00 0.00 0.00 0.00 0.00 0.00 0.00 0.00 0.00 0.00 0.00 0.00 0.00 0.00 0.00 0.00 0.00 0.00 0.00 0.00 0.00 0.00 0.00 0.00 0.00 0.00 0.00 0.00 0.00 0.00 0.00 0.00 0.00 0.00 0.03 0.07 0.02 0.00 0.00 0.00 0.01 0.01 0.00 0.00
0.00 0.00 0.00 0.00 0.00 0.00 0.00 0.00 0.00 0.00 0.00 0.00 0.00 0.00 0.00 0.00 0.00 0.00 0.00 0.00 0.00 0.00 0.00 0.00 0.00 0.00 0.00 0.00 0.00 0.00 0.00 0.00 0.00 0.00 0.00 0.03 0.07 0.00 0.00 0.00 0.00 0.00 0.00 0.00 0.00
0.00 0.00 0.00 0.00 0.00 0.00 0.00 0.00 0.00 0.00 0.00 0.00 0.00 0.00 0.00 0.00 0.00 0.00 0.00 0.00 0.00 0.00 0.00 0.00 0.00 0.00 0.00 0.00 0.00 0.00 0.00 0.00 0.00 0.00 0.00 0.01 0.07 0.00 0.00 0.00 0.00 0.00 0.00 0.00 0.00
0.00 0.00 0.00 0.00 0.00 0.00 0.00 0.00 0.00 0.00 0.00 0.00 0.00 0.00 0.00 0.00 0.00 0.00 0.00 0.00 0.00 0.00 0.00 0.00 0.00 0.00 0.00 0.01 0.00 0.00 0.00 0.00 0.00 0.00 0.02 0.01 0.05 0.00 0.00 0.00 0.00 0.00 0.00 0.00 0.00
0.00 0.00 0.00 0.00 0.00 0.00 0.00 0.00 0.00 0.00 0.00 0.00 0.00 0.00 0.00 0.00 0.00 0.00 0.00 0.00 0.00 0.00 0.00 0.00 0.00 0.00 0.00 0.01 0.00 0.00 0.00 0.00 0.00 0.00 0.00 0.00 0.00 0.00 0.00 0.00 0.00 0.00 0.00 0.00 0.00
0.00 0.00 0.00 0.00 0.00 0.00 0.00 0.00 0.00 0.00 0.00 0.00 0.00 0.00 0.00 0.00 0.00 0.00 0.00 0.00 0.00 0.00 0.00 0.00 0.00 0.00 0.00 0.00 0.00 0.00 0.00 0.00 0.00 0.00 0.00 0.00 0.00 0.00 0.00 0.00 0.00 0.00 0.00 0.00 0.00
0.00 0.00 0.00 0.00 0.00 0.00 0.00 0.00 0.00 0.00 0.00 0.00 0.00 0.00 0.00 0.00 0.00 0.00 0.00 0.00 0.00 0.00 0.00 0.00 0.00 0.00 0.00 0.00 0.00 0.00 0.00 0.00 0.00 0.00 0.00 0.00 0.00 0.00 0.00 0.00 0.00 0.00 0.00 0.00 0.00
0.00 0.00 0.00 0.00 0.00 0.00 0.00 0.00 0.00 0.00 0.00 0.00 0.00 0.00 0.00 0.00 0.00 0.00 0.00 0.00 0.00 0.00 0.00 0.00 0.00 0.00 0.02 0.00 0.00 0.04 0.00 0.00 0.00 0.00 0.00 0.00 0.00 0.00 0.00 0.00 0.00 0.00 0.00 0.00 0.00
MSLP
1016.08 1015.74 1015.73 1015.59 1015.36 1015.23 1015.01 1014.81 1014.66 1014.48 1014.32 1013.94 1013.69 1013.39 1013.22 1012.80 1011.72 1010.77 1009.13 1008.25 1007.83 1007.71 1007.69 1006.62 1005.46 1004.72 1004.01 1003.63 1002.69 1002.27 1002.14 1003.07 1002.78 1004.31 1007.71 1007.11 1010.23 1011.69 1012.06 1010.98 1009.93 1010.54 1011.26 1011.92 1012.44
1015.80 1015.69 1015.61 1015.36 1015.14 1015.02 1014.81 1014.63 1014.52 1014.26 1014.07 1013.67 1013.45 1013.38 1013.19 1012.74 1011.22 1009.04 1007.88 1007.70 1007.62 1007.72 1007.31 1005.85 1004.32 1003.66 1002.99 1002.16 1001.77 1001.89 1002.84 1002.01 1002.50 1003.45 1006.27 1006.99 1011.35 1013.19 1012.57 1012.72 1013.59 1013.13 1013.56 1014.11 1013.99
1015.75 1015.54 1015.42 1015.20 1014.97 1014.90 1014.65 1014.44 1014.33 1014.03 1013.78 1013.53 1013.38 1013.24 1013.11 1012.70 1010.26 1007.27 1007.54 1007.50 1007.59 1007.75 1007.01 1005.54 1004.30 1003.35 1002.40 1001.57 1001.31 1001.86 1002.62 1002.51 1003.25 1004.28 1005.51 1007.45 1010.26 1013.41 1012.59 1015.31 1015.77 1015.29 1016.09 1016.18 1015.84
1015.62 1015.40 1015.24 1015.03 1014.79 1014.70 1014.42 1014.28 1014.07 1013.77 1013.51 1013.44 1013.30 1013.13 1012.81 1011.95 1008.55 1006.98 1007.29 1007.34 1007.65 1007.38 1006.51 1004.81 1003.73 1002.77 1001.78 1001.61 1002.06 1002.29 1002.85 1003.13 1004.14 1004.73 1006.28 1008.71 1010.93 1013.90 1014.86 1016.18 1016.20 1016.90 1017.33 1017.70 1018.13
1015.50 1015.21 1015.06 1014.79 1014.64 1014.46 1014.23 1014.00 1013.79 1013.50 1013.54 1013.33 1013.28 1013.03 1011.80 1009.90 1006.92 1006.83 1007.15 1007.37 1007.26 1006.79 1005.33 1003.60 1002.79 1001.95 1001.57 1001.86 1002.44 1002.93 1003.78 1004.45 1005.32 1006.41 1008.23 1010.15 1012.16 1013.93 1015.71 1016.70 1017.22 1017.78 1018.28 1018.90 1019.45
1015.31 1015.07 1014.87 1014.60 1014.43 1014.17 1013.94 1013.71 1013.57 1013.47 1013.41 1013.30 1013.20 1012.86 1011.57 1008.00 1005.73 1006.22 1006.30 1006.56 1006.24 1005.49 1004.29 1003.42 1002.68 1002.41 1001.82 1002.20 1002.77 1003.68 1004.87 1005.99 1006.61 1007.32 1008.44 1010.10 1012.67 1014.26 1017.03 1017.47 1017.86 1018.49 1019.31 1019.93 1020.26
1015.17 1014.85 1014.60 1014.27 1014.04 1013.90 1013.65 1013.50 1013.46 1013.36 1013.22 1013.24 1013.08 1012.29 1009.88 1006.49 1005.17 1005.54 1005.76 1005.61 1005.04 1004.77 1004.16 1003.81 1003.68 1003.07 1002.60 1002.93 1003.81 1005.44 1007.15 1007.72 1007.74 1009.21 1010.00 1010.93 1013.06 1015.16 1017.06 1017.67 1018.13 1019.24 1020.03 1020.68 1021.29
1014.86 1014.60 1014.23 1014.04 1013.88 1013.68 1013.36 1013.27 1013.33 1013.16 1013.03 1012.98 1012.82 1011.52 1008.09 1005.21 1005.07 1005.20 1005.37 1005.05 1004.92 1004.74 1004.68 1004.45 1004.21 1003.56 1002.88 1003.25 1004.33 1007.20 1010.19 1012.99 1011.88 1012.62 1013.07 1008.93 1013.10 1014.07 1016.27 1017.37 1018.37 1019.70 1020.69 1021.42 1022.14
1014.84 1014.34 1014.12 1013.91 1013.69 1013.32 1013.34 1013.15 1013.06 1012.83 1012.84 1012.65 1012.19 1010.33 1006.58 1005.63 1005.16 1004.93 1004.90 1004.56 1004.43 1004.52 1004.49 1004.59 1004.41 1003.63 1003.10 1003.59 1006.26 1007.36 1010.42 1013.14 1013.71 1012.94 1012.00 1009.14 1012.11 1013.84 1015.46 1017.32 1018.77 1020.11 1021.08 1021.86 1022.44
1014.47 1014.15 1014.00 1013.67 1013.48 1013.43 1013.25 1012.96 1012.63 1012.58 1012.22 1011.26 1010.27 1009.17 1005.67 1004.37 1004.45 1004.59 1004.59 1004.44 1004.41 1004.12 1003.96 1004.18 1004.09 1003.55 1002.95 1003.23 1004.55 1006.04 1008.37 1011.19 1012.80 1010.71 1008.56 1008.53 1010.98 1013.27 1015.55 1017.40 1019.14 1020.16 1020.90 1021.51 1022.15
1014.33 1014.07 1013.74 1013.50 1013.57 1013.48 1012.83 1012.47 1012.16 1011.01 1009.87 1007.82 1006.32 1005.25 1004.33 1004.35 1004.61 1004.51 1004.48 1004.65 1004.43 1003.91 1003.42 1003.38 1003.27 1002.90 1003.20 1003.75 1003.57 1004.10 1006.74 1008.17 1008.55 1008.06 1008.07 1008.06 1009.95 1012.19 1014.91 1017.07 1018.66 1020.06 1020.89 1021.56 1021.98
1014.13 1013.91 1013.59 1013.52 1013.39 1013.13 1013.06 1010.27 1007.81 1006.93 1006.64 1005.93 1005.26 1004.59 1004.09 1003.62 1003.54 1003.67 1004.05 1004.09 1003.58 1003.07 1002.50 1002.62 1002.94 1003.17 1003.07 1003.45 1003.77 1004.08 1005.08 1007.11 1008.14 1007.88 1008.22 1008.18 1009.27 1012.94 1013.93 1016.67 1017.83 1018.94 1019.71 1020.89 1021.32
1013.95 1013.78 1013.49 1013.34 1013.03 1013.11 1010.35 1008.04 1007.02 1006.36 1005.89 1005.00 1004.52 1003.82 1003.81 1003.40 1002.81 1003.19 1003.63 1002.97 1002.59 1002.17 1002.07 1002.74 1003.97 1003.38 1003.53 1003.37 1003.57 1004.17 1005.25 1005.81 1006.22 1006.55 1006.26 1007.33 1011.31 1012.66 1016.92 1017.42 1018.38 1019.00 1019.84 1020.77 1021.84
1013.86 1013.62 1013.31 1013.08 1013.11 1009.46 1007.91 1007.24 1006.46 1006.40 1005.44 1004.60 1004.17 1003.45 1003.69 1002.95 1003.25 1003.37 1003.03 1002.73 1002.10 1002.26 1002.18 1002.63 1003.35 1003.79 1003.61 1003.63 1004.56 1004.54 1005.43 1005.74 1005.74 1005.92 1007.15 1009.44 1013.51 1016.51 1018.81 1018.63 1019.35 1019.68 1020.34 1021.42 1022.00
1013.60 1013.25 1013.06 1013.19 1011.65 1008.22 1006.88 1006.57 1006.68 1006.78 1004.69 1004.01 1003.32 1003.02 1002.95 1002.84 1003.12 1003.32 1003.31 1002.83 1002.53 1002.32 1003.27 1003.27 1003.83 1003.80 1004.01 1004.61 1005.10 1005.20 1005.59 1005.45 1005.16 1005.46 1007.40 1010.03 1013.05 1017.05 1019.01 1019.06 1019.45 1020.52 1020.74 1021.28 1021.72
1013.40 1012.98 1012.96 1012.46 1011.06 1008.21 1006.60 1006.43 1006.94 1006.76 1004.44 1003.28 1002.97 1003.24 1003.03 1002.82 1003.03 1003.09 1003.34 1003.53 1003.28 1003.43 1003.68 1004.08 1004.62 1004.92 1005.04 1005.08 1005.14 1005.74 1005.78 1005.48 1004.89 1005.42 1006.94 1008.85 1011.79 1017.79 1018.06 1018.59 1020.36 1020.99 1021.19 1021.39 1021.94
1013.05 1012.77 1012.72 1010.44 1008.30 1006.64 1006.68 1006.61 1006.51 1006.58 1005.28 1003.52 1003.08 1003.00 1002.67 1003.12 1003.48 1003.38 1003.58 1003.74 1003.98 1004.88 1004.91 1005.12 1006.54 1006.88 1006.31 1005.77 1005.70 1006.27 1006.20 1005.71 1006.04 1006.35 1007.55 1009.12 1013.29 1017.49 1018.53 1018.87 1019.62 1020.65 1021.45 1021.74 1021.71
1012.84 1012.70 1010.83 1009.61 1007.74 1007.18 1007.23 1006.93 1006.40 1005.04 1003.67 1003.19 1002.92 1003.03 1002.79 1003.71 1004.07 1004.32 1004.37 1004.60 1005.23 1005.49 1005.35 1006.20 1008.01 1008.46 1007.14 1006.67 1006.67 1006.93 1007.55 1007.55 1007.76 1008.25 1008.97 1011.31 1015.62 1018.90 1018.84 1019.51 1019.93 1020.47 1021.26 1021.51 1021.98
1012.43 1011.17 1009.76 1008.28 1007.75 1007.84 1007.42 1006.34 1005.83 1003.95 1004.08 1003.74 1003.58 1003.33 1003.37 1004.06 1004.73 1004.84 1004.98 1005.74 1006.43 1006.71 1006.85 1006.59 1007.33 1007.17 1007.44 1007.44 1007.29 1007.59 1008.16 1008.66 1008.78 1008.76 1009.55 1014.27 1017.88 1019.07 1018.93 1019.31 1019.70 1020.83 1021.47 1022.11 1022.52
1011.95 1010.08 1007.73 1007.53 1007.62 1007.77 1007.18 1006.26 1005.44 1005.13 1004.79 1004.26 1003.78 1003.76 1004.99 1005.43 1005.56 1005.57 1006.85 1007.02 1007.21 1007.44 1007.56 1007.50 1007.49 1007.00 1007.32 1007.62 1007.90 1008.68 1008.70 1008.84 1009.17 1009.91 1011.10 1014.07 1016.92 1018.26 1018.86 1019.35 1019.95 1020.73 1021.46 1022.27 1022.45
1011.82 1008.97 1007.28 1007.27 1007.27 1007.37 1006.43 1005.20 1005.42 1005.51 1005.07 1004.97 1004.75 1004.94 1005.75 1006.12 1006.17 1006.27 1007.74 1008.80 1008.80 1008.42 1008.38 1008.54 1008.94 1008.36 1007.97 1008.82 1009.18 1009.21 1009.76 1010.25 1010.61 1011.76 1012.67 1015.08 1017.02 1017.63 1018.51 1019.10 1019.56 1020.50 1021.06 1021.83 1022.28
1011.01 1008.36 1007.03 1007.12 1007.07 1006.29 1005.69 1005.59 1006.68 1005.70 1005.67 1005.78 1005.96 1006.30 1006.52 1006.87 1007.09 1007.28 1008.28 1009.41 1009.74 1009.50 1009.45 1009.98 1010.24 1009.67 1009.22 1009.89 1010.14 1010.41 1011.05 1011.38 1011.93 1012.44 1014.19 1015.49 1017.35 1017.61 1018.10 1018.64 1019.48 1020.33 1021.31 1022.12 1022.38
1011.05 1007.57 1007.13 1007.14 1006.35 1005.75 1006.23 1006.31 1006.50 1006.31 1006.29 1006.43 1006.90 1007.58 1007.75 1007.96 1008.48 1008.34 1008.95 1010.34 1010.65 1011.15 1011.74 1011.52 1011.10 1010.86 1009.87 1011.00 1011.43 1011.28 1011.77 1012.31 1012.69 1012.97 1014.58 1014.88 1017.50 1017.83 1018.22 1018.88 1019.73 1021.04 1021.50 1021.75 1022.65
1010.94 1007.96 1007.38 1007.22 1006.85 1006.46 1006.36 1006.85 1007.24 1007.33 1007.42 1007.56 1007.86 1008.04 1008.13 1008.22 1008.72 1009.04 1009.45 1010.90 1011.64 1012.23 1012.69 1012.59 1012.25 1011.91 1011.51 1011.81 1011.89 1011.67 1012.38 1013.03 1013.42 1014.03 1014.38 1015.65 1017.02 1017.92 1018.56 1019.14 1019.96 1020.69 1021.25 1021.93 1022.90
1010.97 1009.73 1009.25 1007.96 1007.19 1007.25 1007.18 1007.08 1007.44 1007.95 1008.31 1008.40 1008.45 1008.61 1008.94 1009.22 1009.04 1009.16 1009.68 1010.73 1011.75 1012.58 1012.86 1013.03 1012.64 1012.46 1012.47 1012.78 1012.56 1012.70 1013.18 1013.47 1014.03 1014.64 1015.22 1015.98 1017.13 1018.11 1018.65 1019.37 1020.17 1020.88 1021.85 1022.53 1023.74
1011.99 1010.86 1009.70 1009.32 1008.96 1008.23 1008.58 1008.09 1007.84 1008.56 1008.95 1009.03 1009.35 1009.68 1009.95 1010.52 1010.69 1010.63 1010.79 1011.24 1011.94 1012.37 1013.07 1013.32 1013.69 1013.43 1013.73 1013.53 1013.48 1013.22 1013.55 1014.05 1014.72 1015.34 1015.94 1016.58 1017.61 1018.18 1019.12 1020.01 1021.35 1022.06 1022.55 1023.13 1024.42
1013.35 1011.71 1011.17 1010.18 1009.47 1008.79 1009.02 1009.07 1009.00 1009.67 1010.27 1010.10 1010.33 1010.39 1010.97 1011.97 1011.98 1011.83 1011.81 1011.89 1012.21 1012.55 1013.07 1013.56 1013.91 1013.92 1014.78 1014.69 1014.12 1014.78 1015.18 1015.45 1015.78 1016.20 1017.15 1017.74 1018.46 1018.85 1019.51 1020.57 1021.64 1022.48 1023.30 1024.20 1025.15
Thickness
5753 5757 5757 5758 5760 5761 5762 5762 5762 5762 5762 5765 5766 5769 5770 5775 5785 5795 5800 5814 5820 5824 5826 5834 5839 5843 5849 5840 5850 5855 5818 5794 5817 5815 5773 5788 5765 5771 5781 5780 5784 5783 5775 5772 5773
5755 5756 5757 5759 5761 5761 5762 5762 5761 5762 5763 5766 5767 5768 5770 5774 5787 5798 5817 5820 5823 5824 5823 5825 5829 5843 5837 5844 5851 5834 5799 5820 5841 5838 5795 5796 5765 5764 5758 5767 5752 5750 5758 5756 5756
5754 5756 5757 5759 5760 5760 5761 5761 5762 5763 5765 5767 5767 5769 5771 5774 5786 5808 5821 5823 5824 5825 5830 5838 5842 5840 5831 5852 5853 5842 5805 5832 5830 5833 5826 5804 5784 5759 5765 5732 5728 5728 5728 5734 5737
5754 5756 5758 5759 5761 5761 5762 5762 5763 5765 5767 5768 5769 5771 5774 5781 5773 5819 5824 5826 5826 5828 5830 5835 5837 5828 5835 5832 5845 5821 5831 5830 5825 5829 5813 5787 5775 5740 5740 5724 5730 5728 5728 5723 5716
5754 5757 5759 5761 5761 5762 5763 5764 5766 5768 5768 5770 5771 5773 5785 5786 5801 5827 5828 5828 5830 5831 5831 5836 5835 5841 5832 5836 5835 5822 5821 5821 5817 5807 5791 5780 5757 5742 5729 5729 5728 5724 5720 5712 5704
5755 5758 5760 5762 5762 5764 5766 5767 5768 5770 5771 5772 5772 5776 5783 5778 5835 5834 5836 5834 5834 5835 5838 5842 5837 5845 5840 5835 5829 5827 5816 5807 5806 5797 5791 5772 5752 5744 5720 5725 5720 5714 5705 5700 5697
5756 5759 5762 5763 5766 5767 5769 5770 5771 5773 5773 5774 5775 5783 5787 5801 5844 5843 5842 5839 5847 5843 5833 5844 5844 5834 5839 5823 5835 5807 5776 5777 5793 5784 5776 5772 5739 5718 5720 5720 5714 5703 5696 5689 5683
5758 5761 5764 5765 5767 5769 5771 5774 5774 5775 5777 5778 5779 5787 5788 5843 5847 5843 5845 5841 5849 5849 5842 5846 5846 5835 5833 5841 5823 5764 5732 5696 5733 5722 5719 5781 5711 5730 5724 5716 5707 5694 5684 5676 5668
5757 5762 5765 5767 5769 5772 5773 5776 5777 5780 5780 5782 5786 5791 5794 5842 5830 5844 5847 5834 5842 5844 5845 5845 5836 5824 5831 5807 5749 5775 5729 5699 5698 5723 5732 5784 5727 5728 5727 5710 5694 5683 5674 5667 5660
5760 5764 5765 5769 5770 5773 5776 5779 5782 5783 5787 5793 5799 5785 5820 5819 5837 5842 5850 5846 5832 5834 5829 5825 5819 5805 5817 5808 5765 5764 5757 5722 5692 5742 5791 5772 5741 5726 5712 5699 5681 5675 5670 5665 5658
5761 5764 5767 5770 5771 5773 5779 5786 5784 5784 5794 5799 5811 5813 5825 5840 5846 5834 5844 5834 5832 5825 5804 5821 5800 5797 5805 5807 5819 5816 5778 5763 5764 5781 5781 5776 5744 5731 5707 5690 5678 5668 5664 5656 5649
5762 5765 5769 5770 5773 5777 5780 5789 5808 5817 5793 5820 5824 5827 5838 5846 5820 5832 5848 5818 5819 5803 5828 5819 5797 5816 5826 5820 5812 5811 5791 5760 5756 5773 5763 5770 5758 5731 5704 5691 5687 5675 5669 5657 5650
5762 5765 5769 5772 5777 5778 5798 5809 5831 5831 5793 5809 5825 5825 5827 5839 5826 5824 5837 5833 5823 5822 5826 5800 5796 5821 5814 5812 5802 5799 5779 5777 5773 5782 5795 5780 5730 5678 5664 5671 5677 5674 5665 5655 5637
5762 5766 5771 5775 5776 5807 5806 5826 5836 5832 5777 5790 5805 5823 5830 5839 5814 5844 5849 5836 5833 5816 5828 5819 5822 5809 5807 5800 5793 5776 5789 5783 5777 5772 5750 5745 5667 5657 5655 5651 5658 5662 5654 5638 5632
5764 5770 5773 5775 5786 5803 5818 5832 5833 5816 5744 5803 5811 5851 5839 5824 5824 5824 5851 5837 5817 5824 5817 5805 5804 5804 5792 5786 5794 5777 5789 5781 5783 5776 5747 5734 5698 5665 5648 5638 5650 5646 5645 5637 5631
5766 5772 5773 5778 5787 5810 5828 5831 5816 5760 5746 5796 5818 5808 5810 5824 5822 5831 5827 5838 5834 5815 5818 5807 5821 5806 5795 5800 5795 5790 5775 5777 5785 5772 5735 5749 5730 5646 5657 5657 5644 5640 5637 5632 5624
5769 5772 5775 5790 5794 5825 5827 5809 5759 5726 5782 5793 5799 5812 5817 5806 5807 5815 5808 5803 5792 5765 5771 5789 5763 5771 5792 5777 5787 5774 5757 5732 5723 5730 5726 5758 5690 5651 5660 5665 5657 5642 5632 5627 5625
5770 5773 5788 5796 5813 5820 5809 5778 5735 5771 5802 5821 5818 5815 5809 5805 5800 5801 5797 5784 5796 5788 5777 5754 5716 5744 5777 5769 5756 5755 5744 5719 5684 5696 5717 5718 5657 5634 5662 5658 5656 5648 5635 5628 5617
5772 5784 5789 5805 5813 5812 5787 5756 5756 5800 5805 5802 5808 5798 5800 5802 5797 5794 5793 5777 5780 5784 5756 5757 5740 5775 5770 5774 5768 5746 5727 5743 5717 5734 5721 5670 5645 5646 5659 5654 5652 5633 5625 5609 5603
5776 5784 5797 5813 5814 5801 5776 5757 5781 5799 5804 5806 5789 5804 5767 5774 5776 5782 5762 5778 5773 5782 5785 5766 5739 5775 5775 5771 5764 5742 5750 5714 5722 5690 5688 5672 5646 5636 5642 5641 5639 5629 5616 5602 5595
5772 5775 5804 5815 5814 5786 5765 5783 5791 5802 5806 5791 5789 5784 5774 5773 5780 5777 5753 5757 5768 5769 5776 5761 5744 5746 5762 5733 5726 5728 5716 5716 5715 5698 5683 5644 5637 5664 5650 5646 5638 5626 5619 5605 5595
5773 5762 5808 5814 5774 5787 5781 5791 5779 5793 5801 5791 5790 5781 5773 5772 5767 5767 5749 5748 5765 5763 5746 5749 5732 5718 5733 5738 5741 5728 5711 5708 5685 5684 5672 5662 5639 5669 5661 5652 5640 5628 5611 5597 5590
5762 5785 5808 5804 5762 5776 5784 5783 5787 5783 5782 5780 5770 5772 5774 5759 5743 5757 5749 5753 5754 5742 5724 5733 5718 5700 5721 5712 5718 5708 5710 5706 5703 5702 5663 5667 5633 5664 5657 5644 5633 5614 5605 5597 5584
5767 5763 5781 5788 5790 5777 5773 5768 5762 5781 5774 5775 5767 5771 5762 5756 5758 5744 5739 5739 5739 5734 5722 5726 5714 5704 5693 5694 5707 5698 5699 5699 5692 5671 5675 5663 5648 5647 5643 5635 5624 5615 5606 5593 5579
5766 5753 5761 5753 5769 5772 5774 5773 5759 5751 5767 5768 5757 5756 5748 5735 5743 5743 5742 5732 5733 5725 5726 5718 5700 5709 5707 5704 5704 5698 5690 5692 5681 5679 5663 5663 5648 5641 5641 5633 5623 5613 5598 5585 5568
5744 5746 5764 5756 5761 5763 5755 5757 5757 5751 5752 5744 5741 5744 5743 5725 5728 5720 5728 5724 5713 5721 5711 5714 5687 5698 5683 5697 5696 5691 5694 5689 5682 5675 5668 5660 5642 5650 5638 5629 5609 5597 5587 5579 5560
5746 5759 5751 5746 5753 5753 5748 5750 5749 5747 5745 5748 5742 5737 5727 5721 5730 5732 5733 5730 5722 5712 5703 5700 5691 5686 5663 5672 5686 5662 5671 5672 5672 5671 5656 5636 5638 5642 5629 5616 5602 5592 5581 5566 5553